Weather History for KMOT - January, 2014

Change the Weather History Date:

Wednesday, January 15, 2014

  Actual Average Record
Temperature  
Mean Temperature 26 °F 12 °F  
Max Temperature 43 °F 21 °F 49 °F (1914)
Min Temperature 8 °F 3 °F -39 °F (1916)
Degree Days  
Heating Degree Days 39 53  
Month to date heating degree days 826 795  
Since 1 July heating degree days 4766 4390  
Moisture  
Dew Point 21 °F    
Average Humidity 67    
Maximum Humidity 81    
Minimum Humidity 53    
Precipitation  
Precipitation T in 0.02 in 0.40 in (1967)
Month to date precipitation 0.04 0.27  
Year to date precipitation 0.04 0.27  
Sea Level Pressure  
Sea Level Pressure 29.66 in    
Wind  
Wind Speed 24 mph (WSW)    
Max Wind Speed 48 mph    
Max Gust Speed 59 mph    
Visibility 10 miles    
Events Rain , Snow    
T = Trace of Precipitation, MM = Missing Value Source: NWS Daily Summary

Daily Weather History Graph

Daily Weather History Graph

Search for Another Location

Airport or City:

Trip Planner

Search our weather history database for the weather conditions in past years. The results will help you decide how hot, cold, wet, or windy it might be!

Date:

Astronomy

Jan. 15, 2014 Rise Set
Actual Time 8:30 AM CST 5:18 PM CST
Civil Twilight 7:55 AM CST 5:53 PM CST
Nautical Twilight 7:16 AM CST 6:32 PM CST
Astronomical Twilight 6:39 AM CST 7:10 PM CST
Moon 5:23 PM CST (1/15) 7:44 AM CST (1/15)
Length of Visible Light 9h 58m
Length of Day
8h 47m
Full, 100% of the Moon is Illuminated
Jan 15
Full
Jan 15
Full
Jan 23
Last Quarter
Jan 30
New
Feb 6
First Quarter

Hourly Weather History & Observations

Time (CST) Temp. Windchill Dew Point Humidity Pressure Visibility Wind Dir Wind Speed Gust Speed Precip Events Conditions
12:54 AM 9.0 °F 0.6 °F 3.0 °F 77% 30.17 in 10.0 mi SE 4.6 mph - N/A   Overcast
1:54 AM 12.9 °F 1.6 °F 3.9 °F 67% 30.11 in 10.0 mi South 8.1 mph - N/A   Overcast
3:54 AM 16.0 °F 5.3 °F 7.0 °F 68% 30.01 in 7.0 mi SSE 8.1 mph - 0.00 in Snow Light Snow
4:54 AM 18.0 °F 1.7 °F 10.9 °F 74% 29.93 in 10.0 mi SSE 19.6 mph 26.5 mph 0.00 in   Overcast
5:54 AM 19.9 °F 7.3 °F 12.9 °F 74% 29.84 in 10.0 mi SSE 12.7 mph - N/A   Overcast
6:54 AM 21.9 °F 11.0 °F 15.1 °F 75% 29.78 in 10.0 mi South 10.4 mph - N/A   Overcast
7:54 AM 24.1 °F 13.7 °F 18.0 °F 77% 29.72 in 10.0 mi South 10.4 mph - N/A   Overcast
8:54 AM 27.0 °F 14.7 °F 21.0 °F 78% 29.67 in 10.0 mi SSW 16.1 mph - N/A   Overcast
9:54 AM 34.0 °F 21.8 °F 26.1 °F 73% 29.62 in 10.0 mi WSW 23.0 mph 28.8 mph N/A   Overcast
10:54 AM 37.9 °F 26.8 °F 28.9 °F 70% 29.58 in 10.0 mi WSW 24.2 mph 31.1 mph N/A   Clear
11:54 AM 41.0 °F 31.4 °F 28.9 °F 62% 29.54 in 10.0 mi WSW 21.9 mph 29.9 mph 0.00 in   Clear
12:54 PM 42.1 °F 31.9 °F 28.0 °F 58% 29.51 in 10.0 mi West 26.5 mph 36.8 mph 0.00 in Rain Light Rain
1:54 PM 43.0 °F 33.3 °F 27.0 °F 53% 29.49 in 10.0 mi West 25.3 mph 33.4 mph 0.00 in   Clear
2:54 PM 43.0 °F 32.4 °F 26.1 °F 51% 29.50 in 10.0 mi West 31.1 mph 47.2 mph N/A   Scattered Clouds
3:54 PM 41.0 °F 29.8 °F 27.0 °F 57% 29.52 in 10.0 mi West 29.9 mph 42.6 mph N/A   Partly Cloudy
4:54 PM 39.0 °F 26.8 °F 26.1 °F 60% 29.52 in 10.0 mi West 32.2 mph 50.6 mph N/A   Clear
5:54 PM 37.9 °F 25.5 °F 25.0 °F 60% 29.52 in 10.0 mi West 31.1 mph 42.6 mph N/A   Clear
6:54 PM 37.0 °F 23.3 °F 25.0 °F 62% 29.50 in 10.0 mi West 36.8 mph 42.6 mph N/A   Clear
7:54 PM 36.0 °F 22.6 °F 25.0 °F 64% 29.50 in 10.0 mi WNW 32.2 mph 43.7 mph N/A   Clear
8:54 PM 37.0 °F 23.1 °F 25.0 °F 62% 29.51 in 10.0 mi WNW 38.0 mph 48.3 mph N/A   Mostly Cloudy
9:54 PM 36.0 °F 21.0 °F 26.1 °F 67% 29.51 in 10.0 mi WNW 42.6 mph 56.4 mph N/A   Overcast
10:54 PM 36.0 °F 21.5 °F 27.0 °F 70% 29.55 in 10.0 mi WNW 39.1 mph 52.9 mph N/A   Overcast
11:54 PM 35.1 °F 19.5 °F 26.1 °F 70% 29.59 in 9.0 mi NW 43.7 mph 55.2 mph N/A   Overcast